Regional Weather Roundup
Issued by NWS

Home | Current Version | Previous Version | Graphics & Text | Print | Product List | Glossary Off
Versions: 1 2 3 4 5 6 7 8 9 10 11 12 13 14 15 16 17 18 19 20 21 22 23 24 25 26 27 28 29 30 31 32 33 34 35 36 37 38 39 40 41 42 43 44

000
ASUS43 KMPX 181410
RWRMN
WEATHER ROUNDUP FOR MINNESOTA
NATIONAL WEATHER SERVICE TWIN CITIES/CHANHASSEN MN
900 AM CDT WED APR 18 2018


NOTE: "FAIR" INDICATES FEW OR NO CLOUDS BELOW 12,000 FEET WITH NO
SIGNIFICANT WEATHER AND/OR OBSTRUCTIONS TO VISIBILITY. N/A MEANS
CURRENT SKY AND/OR WEATHER CONDITIONS ARE NOT AVAILABLE.

MNZ060>063-068>070-181500-
   Twin Cities Metro

CITY           SKY/WX    TMP DP  RH WIND       PRES   REMARKS
TWIN CITIES    CLOUDY    33  26  75 NE6       29.96R WCI  28
ST PAUL        CLOUDY    32  25  75 N6        29.96S WCI  26
BLAINE         CLOUDY    34  27  75 N12       29.95S WCI  25
LAKEVILLE      CLOUDY    30  25  80 N6        29.95R WCI  24
EDEN PRAIRIE   CLOUDY    33  23  66 N9        29.95R WCI  25
SOUTH ST PAUL  CLOUDY    33  24  72 N6        29.95R WCI  27
LAKE ELMO      CLOUDY    32  27  80 N5        29.96R WCI  27
$$
MNZ001>005-007-008-013>017-022>024-027-028-181500-
   Northwest Minnesota

CITY           SKY/WX    TMP DP  RH WIND       PRES   REMARKS
BEMIDJI        FAIR      33  12  42 N12       30.07F WCI  24
HALLOCK        FAIR      37  16  41 E13       30.15F
ROSEAU         FAIR      34  19  55 E9        30.18S WCI  26
WARROAD        FAIR      34  18  51 NE8       30.19R WCI  27
THIEF RVR FALL FAIR      36  12  37 NE16G24   30.12S
CROOKSTON      FAIR      37  19  48 E10       30.12R
FOSSTON        FAIR      34  18  51 NE10      30.09F WCI  26
DETROIT LAKES  FAIR      37  19  48 N8        30.05S
MOORHEAD       FAIR      37  27  65 N7        30.08S
PARK RAPIDS    FAIR      36  14  40 NE10G17   30.03R
MAHNOMEN       FAIR      37  18  47 NE13      30.06F
$$
MNZ006-009>011-018-025>026-181500-
   North Central Minnesota

CITY           SKY/WX    TMP DP  RH WIND       PRES   REMARKS
BAUDETTE       FAIR      34  14  43 E8        30.15R WCI  27
FLAG ISLAND    FAIR      32  16  51 N5        30.18R WCI  27
INTL FALLS     FAIR      32  10  40 NE9       30.14R WCI  24
WASKISH        FAIR      36  12  38 NE8       30.13R
BIG FORK       FAIR      34  12  40 NE8       30.09R WCI  27
LONGVILLE      FAIR      34  12  40 N7        30.03S WCI  28
GRAND RAPIDS   CLOUDY    32  16  51 N9        30.05F WCI  24
CRANE LAKE     FAIR      30   9  40 N5        30.12R WCI  25
ORR            FAIR      32  10  40 CALM      30.06R
COOK           FAIR      32  16  51 NE9       30.08R WCI  24
WALKER         FAIR      33  13  43 N12       30.05S WCI  25
$$
MNZ012-019>021-037-181500-
   Northeast Minnesota

CITY           SKY/WX    TMP DP  RH WIND       PRES   REMARKS
DULUTH         CLOUDY    33  22  63 NE21G26   30.01R WCI  21
ELY            FAIR      30  16  55 NE8       30.06S WCI  23
HIBBING        PTSUNNY   32  16  51 NE10      30.05R WCI  24
EVELETH        FAIR      32  18  55 NE12      30.05R WCI  23
DULUTH HARBOR  CLOUDY    34  30  86 NE13      30.05R WCI  25
TWO HARBORS    CLOUDY    37  25  60 E12G22    30.03R
SILVER BAY     FAIR      36  25  64 NE14      30.04R
G MARAIS ARPRT FAIR      30  16  55 NE14      30.01R WCI  20
$$
MNZ029>031-032-039>041-046>048-054>057-064-181500-
   West Central Minnesota

CITY           SKY/WX    TMP DP  RH WIND       PRES   REMARKS
FERGUS FALLS   CLOUDY    37  21  52 NE9G17    30.02R
WHEATON        CLOUDY    36  30  80 NW7       30.06S
MORRIS         CLOUDY    36  28  75 CALM      30.01S
ALEXANDRIA     CLOUDY    37  27  67 N5        30.01S
ELBOW LAKE     CLOUDY    35  29  78 N7        30.02S WCI  29
WADENA         FAIR      36  19  51 N6        30.01S
GLENWOOD       CLOUDY    34  27  75 CALM      30.00F
APPLETON       CLOUDY    36  27  69 N10       30.02R
BENSON         CLOUDY    36  27  69 NE7       30.03S
ORTONVILLE     CLOUDY    36  27  69 N8        30.02S
MADISON        CLOUDY    37  30  75 N8        30.02R
WILLMAR        CLOUDY    34  27  75 N12       30.01S WCI  25
$$
MNZ033>034-036-042>043-049>051-058-059-181500-
   Central Minnesota

CITY           SKY/WX    TMP DP  RH WIND       PRES   REMARKS
ST CLOUD       CLOUDY    32  26  78 N9        29.99S WCI  24
SAUK CENTRE    CLOUDY    33  25  73 NW3       30.00F
PAYNESVILLE    CLOUDY    33  28  80 N8        30.00S WCI  27
AITKIN         CLOUDY    32  18  55 N9        30.00S WCI  24
PINE RIVER     CLOUDY    32  16  51 NE9       30.05F WCI  24
BRAINERD       CLOUDY    34  19  54 NE10      30.01S WCI  26
STAPLES        CLOUDY    34  18  51 NE8       30.01R WCI  27
LONG PRAIRIE   CLOUDY    32  23  69 N5        30.01R WCI  27
LITTLE FALLS     N/A    N/A N/A N/A NE3         N/A
LITCHFIELD     CLOUDY    34  27  75 N10       29.98S WCI  26
BUFFALO        CLOUDY    32  25  76 N9        29.98F WCI  24
MAPLE LAKE     CLOUDY    33  28  79 N9        29.99S WCI  26
HUTCHINSON     CLOUDY    33  27  78 N6        29.98R WCI  27
$$
MNZ037-044-045-052-053-181500-
   East Central Minnesota

CITY           SKY/WX    TMP DP  RH WIND       PRES   REMARKS
PRINCETON      CLOUDY    34  27  75 N7        29.98S WCI  28
MORA           CLOUDY    32  25  74 NE3       30.00S
RUSH CITY      CLOUDY    33  26  75 N8        29.97F WCI  26
MOOSE LAKE     CLOUDY    34  25  69 NE10G16   29.98S WCI  26
HINCKLEY       CLOUDY    32  28  86 N9        29.99S WCI  24
CLOQUET        CLOUDY    34  25  69 NE16G22   30.00F WCI  23
MCGREGOR       CLOUDY    32  21  64 NE9       30.02R WCI  24
$$
MNZ071>073-080-081-089-090-097-098-181500-
   Southwest Minnesota

CITY           SKY/WX    TMP DP  RH WIND       PRES   REMARKS
MONTEVIDEO     CLOUDY    34  28  80 NE12      30.01S WCI  25
GRANITE FALLS  CLOUDY    35  28  76 N13       30.01S WCI  26
CANBY          CLOUDY    34  28  79 N8        30.02R WCI  28
MARSHALL       LGT SNOW  31  28  89 N12       29.99S FOG     WCI  22
REDWOOD FALLS  CLOUDY    32  26  78 N8        29.98R WCI  25
OLIVIA         CLOUDY    34  30  86 N10       29.98R WCI  26
PIPESTONE      LGT SNOW N/A N/A N/A N7        29.95R
WINDOM         LGT SNOW  28  16  59 N13       29.94R VSB 1   WCI  18
WORTHINGTON    SNOW      29  27  92 N9        29.94R VSB 1/2 WCI  20
JACKSON        SNOW      28  28 100 N6        29.92S VSB 1/2 WCI  22
TRACY          LGT SNOW  32  29  90 N12       29.97R WCI  23
SLAYTON        LGT SNOW  29  28  96 N12       29.95R VSB 1   WCI  20
$$
MNZ065>067-074>077-082>085-091>093-181500-
   South Central Minnesota

CITY           SKY/WX    TMP DP  RH WIND       PRES   REMARKS
MANKATO        CLOUDY    31  25  78 N10       29.95R WCI  22
NEW ULM        CLOUDY    30  23  74 N9        29.96R WCI  22
ST JAMES       FLURRIES  30  25  80 N12       29.95S WCI  21
FAIRMONT       HVY SNOW  28  26  92 N13       29.93S VSB 1/4 WCI  17
GLENCOE        CLOUDY    32  26  78 N7        29.96R WCI  26
OWATONNA       CLOUDY    30  25  80 N7        29.93R WCI  23
WASECA         CLOUDY    32  27  80 N8        29.94S WCI  25
ALBERT LEA     LGT SNOW  28  21  74 N9        29.89S WCI  20
$$
MNZ078>079-086>088-094>096-181500-
   Southeast Minnesota

CITY           SKY/WX    TMP DP  RH WIND       PRES   REMARKS
ROCHESTER      CLOUDY    30  23  75 NE6       29.90R WCI  24
RED WING       CLOUDY    34  21  60 NE3       29.93R
STANTON        CLOUDY    32  26  77 N7        29.93R WCI  26
DODGE CENTER   CLOUDY    30  23  74 N5        29.91R WCI  25
WINONA         CLOUDY    34  27  75 E6        29.91R WCI  29
AUSTIN         CLOUDY    30  23  74 N8        29.87F WCI  23
PRESTON        CLOUDY    30  22  74 NE6       29.89R WCI  24
$$
ABBREVIATIONS USED IN REMARKS
   TC - TEMPERATURES IN CELSIUS
  WCI - WIND CHILL INDEX
   HX - HEAT INDEX
  VSB - VISIBILITY
$$




USA.gov is the U.S. government's official web portal to all federal, state and local government web resources and services.